TimeCDT,TemperatureF,Dew PointF,Humidity,Sea Level PressureIn,VisibilityMPH,Wind Direction,Wind SpeedMPH,Gust SpeedMPH,PrecipitationIn,Events,Conditions,WindDirDegrees,DateUTC
12:15 AM,60.4,58.5,93,30.08,10.0,ESE,10.4,-,N/A,,Scattered Clouds,110,2013-09-20 05:15:00
12:35 AM,60.8,58.5,92,30.09,10.0,ESE,6.9,-,N/A,,Mostly Cloudy,120,2013-09-20 05:35:00
12:55 AM,60.8,58.5,92,30.06,10.0,SSE,12.7,-,N/A,,Overcast,150,2013-09-20 05:55:00
1:15 AM,60.1,58.3,94,30.08,10.0,SE,4.6,-,N/A,,Drizzle,140,2013-09-20 06:15:00
1:35 AM,60.1,58.3,94,30.08,10.0,ESE,4.6,-,N/A,,Scattered Clouds,120,2013-09-20 06:35:00
1:55 AM,60.1,58.1,93,30.08,10.0,East,4.6,-,N/A,,Clear,100,2013-09-20 06:55:00
2:15 AM,59.9,58.1,94,30.08,10.0,Calm,Calm,-,N/A,,Clear,0,2013-09-20 07:15:00
2:35 AM,59.9,58.1,94,30.07,10.0,Calm,Calm,-,N/A,,Clear,0,2013-09-20 07:35:00
2:55 AM,60.1,58.5,94,30.07,10.0,North,4.6,-,N/A,,Clear,350,2013-09-20 07:55:00
3:15 AM,60.3,58.6,94,30.07,10.0,NNW,4.6,-,N/A,,Clear,340,2013-09-20 08:15:00
3:35 AM,60.4,59.0,95,30.07,10.0,North,5.8,-,N/A,,Clear,10,2013-09-20 08:35:00
3:55 AM,60.4,59.0,95,30.07,7.0,North,6.9,-,N/A,,Scattered Clouds,10,2013-09-20 08:55:00
4:15 AM,60.8,59.2,94,30.08,7.0,North,10.4,-,N/A,,Overcast,360,2013-09-20 09:15:00
4:35 AM,60.8,59.4,95,30.08,3.0,North,9.2,-,N/A,,Overcast,10,2013-09-20 09:35:00
4:55 AM,60.8,59.4,95,30.09,3.0,North,6.9,-,N/A,,Overcast,10,2013-09-20 09:55:00
5:15 AM,60.8,59.2,94,30.10,7.0,NNE,11.5,-,N/A,,Overcast,20,2013-09-20 10:15:00
5:35 AM,60.8,59.0,94,30.10,7.0,NNE,11.5,-,N/A,,Overcast,30,2013-09-20 10:35:00
5:55 AM,60.8,59.0,94,30.10,7.0,NE,11.5,-,N/A,,Overcast,40,2013-09-20 10:55:00
6:15 AM,60.8,58.8,93,30.11,10.0,NE,12.7,18.4,N/A,,Overcast,40,2013-09-20 11:15:00
6:35 AM,59.9,57.7,93,30.12,10.0,NE,13.8,20.7,N/A,,Overcast,40,2013-09-20 11:35:00
6:55 AM,59.0,55.8,89,30.12,10.0,ENE,13.8,23.0,N/A,,Overcast,60,2013-09-20 11:55:00
7:15 AM,58.5,55.4,90,30.12,10.0,NE,15.0,-,N/A,,Overcast,50,2013-09-20 12:15:00
7:35 AM,58.3,55.4,90,30.12,10.0,NE,12.7,-,N/A,,Overcast,50,2013-09-20 12:35:00
7:55 AM,58.3,55.8,91,30.12,10.0,NE,11.5,16.1,N/A,,Overcast,50,2013-09-20 12:55:00
8:15 AM,58.5,55.9,91,30.12,10.0,NE,9.2,-,N/A,,Overcast,40,2013-09-20 13:15:00
8:35 AM,58.3,55.0,89,30.13,10.0,NE,11.5,-,N/A,,Overcast,50,2013-09-20 13:35:00
8:55 AM,58.1,54.1,87,30.13,10.0,NE,13.8,-,N/A,,Overcast,50,2013-09-20 13:55:00
9:15 AM,58.3,53.6,84,30.13,10.0,NE,15.0,-,N/A,,Overcast,50,2013-09-20 14:15:00
9:35 AM,58.3,52.3,81,30.14,10.0,ENE,13.8,21.9,N/A,,Overcast,60,2013-09-20 14:35:00
9:55 AM,58.5,52.3,80,30.16,10.0,NE,13.8,-,N/A,,Overcast,40,2013-09-20 14:55:00
10:15 AM,59.0,52.3,79,30.16,10.0,NE,13.8,-,N/A,,Overcast,40,2013-09-20 15:15:00
10:35 AM,59.4,51.3,75,30.17,10.0,ENE,12.7,-,N/A,,Overcast,60,2013-09-20 15:35:00
10:55 AM,60.8,52.2,73,30.17,10.0,ENE,13.8,-,N/A,,Mostly Cloudy,60,2013-09-20 15:55:00
11:15 AM,61.7,50.9,68,30.17,10.0,ENE,15.0,-,N/A,,Mostly Cloudy,70,2013-09-20 16:15:00
11:35 AM,63.7,51.8,65,30.17,10.0,NE,15.0,18.4,N/A,,Clear,50,2013-09-20 16:35:00
11:55 AM,63.5,51.8,66,30.17,10.0,NE,15.0,18.4,N/A,,Clear,50,2013-09-20 16:55:00
12:15 PM,64.6,52.3,64,30.16,10.0,NE,11.5,16.1,N/A,,Clear,50,2013-09-20 17:15:00
12:35 PM,64.9,52.2,63,30.15,10.0,NE,13.8,-,N/A,,Clear,40,2013-09-20 17:35:00
12:55 PM,66.2,52.2,61,30.15,10.0,NE,12.7,17.3,N/A,,Clear,40,2013-09-20 17:55:00
1:15 PM,65.7,51.6,60,30.14,10.0,NE,13.8,20.7,N/A,,Clear,40,2013-09-20 18:15:00
1:35 PM,66.0,51.4,59,30.14,10.0,NE,12.7,19.6,N/A,,Clear,50,2013-09-20 18:35:00
1:55 PM,67.1,51.6,57,30.13,10.0,ENE,13.8,20.7,N/A,,Clear,60,2013-09-20 18:55:00
2:15 PM,67.6,51.4,56,30.13,10.0,NE,15.0,-,N/A,,Clear,40,2013-09-20 19:15:00
2:35 PM,67.8,51.8,56,30.13,10.0,East,10.4,17.3,N/A,,Clear,80,2013-09-20 19:35:00
2:55 PM,69.1,51.3,53,30.13,10.0,ENE,16.1,-,N/A,,Clear,70,2013-09-20 19:55:00
3:15 PM,69.4,51.3,52,30.12,10.0,ENE,11.5,-,N/A,,Clear,70,2013-09-20 20:15:00
3:35 PM,69.4,50.0,50,30.12,10.0,ENE,12.7,18.4,N/A,,Clear,70,2013-09-20 20:35:00
3:55 PM,69.4,49.8,50,30.12,10.0,NE,10.4,-,N/A,,Clear,40,2013-09-20 20:55:00
4:15 PM,69.8,48.9,47,30.12,10.0,ENE,9.2,-,N/A,,Clear,60,2013-09-20 21:15:00
4:35 PM,69.8,49.1,48,30.11,10.0,ENE,8.1,-,N/A,,Clear,70,2013-09-20 21:35:00
4:55 PM,70.7,47.1,43,30.11,10.0,East,9.2,-,N/A,,Clear,90,2013-09-20 21:55:00
5:15 PM,70.3,45.5,41,30.11,10.0,East,11.5,-,N/A,,Clear,80,2013-09-20 22:15:00
5:35 PM,70.2,46.6,43,30.11,10.0,East,12.7,-,N/A,,Clear,90,2013-09-20 22:35:00
5:55 PM,70.0,45.1,41,30.11,10.0,ENE,10.4,-,N/A,,Clear,70,2013-09-20 22:55:00
6:15 PM,69.4,44.2,40,30.11,10.0,ESE,11.5,-,N/A,,Clear,110,2013-09-20 23:15:00
6:35 PM,68.9,43.2,39,30.11,10.0,East,10.4,-,N/A,,Clear,90,2013-09-20 23:35:00
6:55 PM,68.0,45.1,44,30.11,10.0,ESE,8.1,-,N/A,,Clear,110,2013-09-20 23:55:00
7:15 PM,66.6,44.4,45,30.11,10.0,ESE,8.1,-,N/A,,Clear,110,2013-09-21 00:15:00
7:35 PM,64.0,45.3,51,30.12,10.0,ESE,6.9,-,N/A,,Clear,110,2013-09-21 00:35:00
7:55 PM,61.5,46.6,58,30.12,10.0,ESE,6.9,-,N/A,,Clear,120,2013-09-21 00:55:00
8:15 PM,61.0,47.1,60,30.12,10.0,ESE,6.9,-,N/A,,Clear,120,2013-09-21 01:15:00
8:35 PM,59.9,47.8,64,30.12,10.0,ESE,5.8,-,N/A,,Clear,110,2013-09-21 01:35:00
8:55 PM,59.9,48.0,65,30.13,10.0,ESE,6.9,-,N/A,,Clear,110,2013-09-21 01:55:00
9:15 PM,59.2,47.5,65,30.13,10.0,ESE,5.8,-,N/A,,Clear,120,2013-09-21 02:15:00
9:35 PM,58.8,47.3,66,30.14,10.0,ESE,5.8,-,N/A,,Clear,120,2013-09-21 02:35:00
9:55 PM,58.1,47.3,67,30.14,10.0,ESE,5.8,-,N/A,,Clear,120,2013-09-21 02:55:00
10:15 PM,57.6,47.5,69,30.16,10.0,SE,4.6,-,N/A,,Clear,130,2013-09-21 03:15:00
10:35 PM,56.8,47.8,72,30.16,10.0,SE,3.5,-,N/A,,Clear,130,2013-09-21 03:35:00
10:55 PM,56.7,47.7,72,30.16,10.0,SE,3.5,-,N/A,,Clear,140,2013-09-21 03:55:00
11:15 PM,56.7,47.5,71,30.16,10.0,SE,3.5,-,N/A,,Clear,140,2013-09-21 04:15:00
11:35 PM,56.8,47.5,71,30.16,10.0,Calm,Calm,-,N/A,,Clear,0,2013-09-21 04:35:00
11:55 PM,55.8,48.4,76,30.15,10.0,South,5.8,-,N/A,,Clear,190,2013-09-21 04:55:00